Location: Peterborough
(44.3091°N, 78.3197°W)
Time: 02:36:41
(UTC-04:00)

Tiros 1 despin weight - Visible Passes

Search period start: 20 September 2024 00:00
Search period end: 30 September 2024 00:00
Orbit: 573 x 617 km, 48.2° (Epoch: 17 September)

Date Brightness Start Highest point End Pass type
(mag) Time Alt. Az. Time Alt. Az. Time Alt. Az.
20 Sep ? 03:46:24 27° ENE 03:46:24 27° ENE 03:48:31 10° ENE visible
20 Sep ? 05:22:58 25° WNW 05:25:23 51° N 05:29:50 10° E visible
21 Sep ? 03:54:53 31° NE 03:54:53 31° NE 03:57:23 10° ENE visible
21 Sep ? 05:31:27 21° WNW 05:34:21 55° N 05:38:50 10° E visible
22 Sep ? 04:03:23 35° NE 04:03:23 35° NE 04:06:16 10° ENE visible
22 Sep ? 05:39:57 18° WNW 05:43:15 65° NNE 05:47:47 10° E visible
23 Sep ? 04:11:53 39° NE 04:11:53 39° NE 04:15:09 10° ENE visible
23 Sep ? 05:48:27 16° WNW 05:52:04 83° NNE 05:56:37 10° ESE visible
24 Sep ? 04:20:26 46° NE 04:20:26 46° NE 04:24:00 10° E visible
24 Sep ? 05:57:00 15° WNW 06:00:46 72° SSW 06:05:16 10° ESE visible
25 Sep ? 04:29:03 54° ENE 04:29:03 54° ENE 04:32:50 10° E visible
25 Sep ? 06:05:38 14° WNW 06:09:20 48° SSW 06:13:42 10° SE visible
26 Sep ? 04:37:44 61° E 04:37:44 61° E 04:41:33 10° ESE visible
26 Sep ? 06:14:19 13° W 06:17:48 31° SW 06:21:48 10° SSE visible
27 Sep ? 04:46:31 55° SE 04:46:31 55° SE 04:50:07 10° ESE visible
27 Sep ? 06:23:07 11° W 06:26:07 20° SW 06:29:25 10° S visible
28 Sep ? 04:55:26 37° SSE 04:55:26 37° SSE 04:58:27 10° SE visible
28 Sep ? 06:32:39 10° WSW 06:34:20 12° SW 06:36:01 10° SSW visible
29 Sep ? 05:04:29 23° S 05:04:29 23° S 05:06:30 10° SSE visible
